Location: Newark
(41.7300°N, 13.7500°E)
Time: 09:27:41
(UTC+00:00)

PCSat - Visible Passes

Search period start: 29 July 2021 00:00
Search period end: 08 August 2021 00:00
Orbit: 785 x 794 km, 67.1° (Epoch: 28 July)

Date Brightness Start Highest point End Pass type
(mag) Time Alt. Az. Time Alt. Az. Time Alt. Az.
29 Jul 10.1 00:08:36 10° NNW 00:13:56 55° NE 00:15:10 45° E visible
29 Jul 11.0 01:52:53 10° WNW 01:55:47 20° W 01:55:47 20° W visible
29 Jul 10.6 23:37:40 10° NNW 23:42:48 41° NE 23:43:58 36° E visible
30 Jul 10.8 01:21:22 10° NW 01:24:37 26° W 01:24:37 26° W visible
30 Jul 11.0 23:06:48 10° NNW 23:11:37 31° NE 23:12:56 28° ENE visible
31 Jul 10.5 00:50:01 10° NW 00:53:34 33° WNW 00:53:34 33° WNW visible
31 Jul 11.3 22:36:00 10° N 22:40:23 24° NE 22:42:00 21° ENE visible
01 Aug 10.3 00:18:49 10° NW 00:22:39 42° WNW 00:22:39 42° WNW visible
01 Aug 11.6 22:05:17 10° N 22:09:06 19° NE 22:11:10 16° ENE visible
01 Aug 10.1 23:47:41 10° NNW 23:51:49 53° NW 23:51:49 53° NW visible
02 Aug 11.9 21:34:43 10° N 21:37:47 15° NE 21:40:24 11° ENE visible
02 Aug 10.0 23:16:38 10° NNW 23:21:04 58° N 23:21:04 58° N visible
03 Aug 12.0 21:04:26 10° NNE 21:06:24 12° NE 21:08:22 10° ENE visible
03 Aug 10.1 22:45:39 10° NNW 22:50:22 53° NNE 22:50:22 53° NNE visible
04 Aug 11.7 00:30:02 10° WNW 00:31:02 14° WNW 00:31:02 14° WNW visible
04 Aug 10.4 22:14:43 10° NNW 22:19:44 42° NE 22:19:44 42° NE visible
04 Aug 11.5 23:58:29 10° NW 00:00:24 19° WNW 00:00:24 19° WNW visible
05 Aug 10.7 21:43:51 10° NNW 21:48:42 32° NE 21:49:09 32° ENE visible
05 Aug 11.1 23:27:07 10° NW 23:29:49 26° WNW 23:29:49 26° WNW visible
06 Aug 11.1 21:13:02 10° N 21:17:29 25° NE 21:18:36 23° ENE visible
06 Aug 10.7 22:55:54 10° NW 22:59:17 36° WNW 22:59:17 36° WNW visible
07 Aug 11.4 20:42:19 10° N 20:46:12 19° NE 20:48:06 16° ENE visible
07 Aug 10.3 22:24:46 10° NNW 22:28:47 50° NW 22:28:47 50° NW visible
